Weather Roundup
Issued by NWS Springfield, MO

Home | Current Version | Previous Version | Text Only | Print | Product List | Glossary On
Versions: 1 2 3 4 5 6 7 8 9 10 11 12 13 14 15 16 17 18 19 20 21 22 23 24 25 26 27 28 29 30 31 32 33 34 35 36 37 38 39 40 41 42 43 44 45 46 47 48 49 50
000
NZUS99 KSGF 262007
HRRSGF

HOURLY WEATHER
NATIONAL WEATHER SERVICE SPRINGFIELD MO
300 PM CDT FRI MAY 26 2017

......SGF CWA......

CITY           SKY/WX    TMP DP  RH WIND       PRES   REMARKS
SPRINGFIELD    CLOUDY    78  67  68 SW7       29.76F
JOPLIN         CLOUDY    83  69  62 CALM      29.76S
WEST PLAINS    CLOUDY    74  66  76 S8        29.81S
ROLLA          CLOUDY    77  70  79 W6        29.76R
OSAGE BEACH    CLOUDY    78  68  71 W6        29.77R
BRANSON        CLOUDY    79  66  65 S5        29.79S

......SURROUNDING SGF CWA......

CITY           SKY/WX    TMP DP  RH WIND       PRES   REMARKS
CHANUTE        MOSUNNY   86  65  49 NE6       29.76S
PARSONS        CLOUDY    84  65  52 CALM      29.76R
COFFEYVILLE    PTSUNNY   85  69  58 E5        29.74S
EMPORIA        MOSUNNY   82  64  54 N7        29.78R
GROVE OK       MOSUNNY   84  70  61 SW3       29.76S
ROGERS AR      CLOUDY    82  69  64 SW13G18   29.78F
SILOAM SPRINGS PTSUNNY   82  66  57 SW12      29.76F
HARRISON AR    PTSUNNY   82  67  60 SW7       29.79S
NEAR YELLVILLE PTSUNNY   75  64  69 S8        29.77S

......KANSAS AND MISSOURI......

CITY           SKY/WX    TMP DP  RH WIND       PRES   REMARKS
KANSAS CTY INT PTSUNNY   81  65  58 N8        29.76R
DOWNTOWN KC    MOSUNNY   84  65  52 N6        29.74S
COLUMBIA       CLOUDY    77  67  71 W6        29.75S
SEDALIA        CLOUDY    80  68  66 CALM      29.76S
ST JOSEPH      PTSUNNY   83  64  52 NE8       29.75S
ST LOUIS       CLOUDY    83  64  52 S10       29.74R
SPIRIT OF STL  CLOUDY    82  67  60 SW7       29.72S
KIRKSVILLE     PTSUNNY   81  66  60 N9        29.75R
WICHITA        MOSUNNY   85  58  39 N10       29.78S
TOPEKA         MOSUNNY   84  66  54 N6        29.76S
OLATHE         MOSUNNY   81  64  56 N6        29.76S

......TENNESSEE......

CITY           SKY/WX    TMP DP  RH WIND       PRES   REMARKS
MEMPHIS        PTSUNNY   83  66  56 S21G31    29.86F
NASHVILLE      MOSUNNY   86  57  37 SW17G26   29.88F

......ARKANSAS.......

CITY           SKY/WX    TMP DP  RH WIND       PRES   REMARKS
FAYETTEVILLE   PTSUNNY   83  69  62 SW15      29.78S
FT SMITH       PTSUNNY   86  68  54 S13G18    29.75S
LITTLE ROCK    PTSUNNY   80  71  74 S14       29.83F

......OKLAHOMA.......

CITY           SKY/WX    TMP DP  RH WIND       PRES   REMARKS
TULSA          MOSUNNY   90  69  50 NE5       29.70F HX  94
PONCA CITY     SUNNY     88  63  43 NE12      29.75S
MCALESTER      PTSUNNY   91  74  57 S14G22    29.74S HX 100
OKLAHOMA CITY  MOSUNNY   88  65  46 N7        29.76R HX  90

......IOWA............

CITY           SKY/WX    TMP DP  RH WIND       PRES   REMARKS
DES MOINES     MOSUNNY   80  57  45 N3        29.75F
QUAD CITIES    CLOUDY    68  61  78 N5        29.76F

......ILLINOIS........

CITY           SKY/WX    TMP DP  RH WIND       PRES   REMARKS
QUINCY         MOSUNNY   80  66  62 W8        29.73S
CHICAGO        CLOUDY    69  53  56 E12       29.81F



USA.gov is the U.S. government's official web portal to all federal, state and local government web resources and services.